[[[{"header":{"parameterUnit":"kt","parameterCategory":2,"dx":1,"dy":1,"la1":30.253999710083008,"la2":30.299108505249023,"lo1":-89.0895004272461,"lo2":-89.04439544677734,"nx":28,"ny":28,"refTime":"2022-10-25T21:00:00:Z","depth":0,"parameterNumber":1,"parameterNumberName":"U-component_of_WINDS"},"data":[2.0649,2.0657,2.0657,2.0666,2.0668,2.0674,2.0677,2.068,2.0682,2.0692,2.0697,2.0697,2.07,2.0707,2.0714,2.0714,2.0717,2.0721,2.0721,2.07,2.0697,2.0695,2.0692,2.0722,2.0722,2.0742,2.0742,2.0742,2.0639,2.064,2.0645,2.0648,2.0652,2.0648,2.0651,2.0655,2.0661,2.0664,2.0668,2.0676,2.0682,2.0683,2.0689,2.0694,2.0692,2.0696,2.0695,2.0696,2.0674,2.0672,2.0698,2.0698,2.0698,2.0698,2.0698,2.0698,2.0621,2.0625,2.0626,2.0631,2.0632,2.0635,2.0639,2.0639,2.0643,2.0648,2.0645,2.0652,2.0655,2.0661,2.0662,2.0669,2.0664,2.0668,2.0669,2.0669,2.0671,2.0645,2.067,2.067,2.0669,2.0669,2.0669,0,2.0607,2.0605,2.0608,2.0612,2.0614,2.0617,2.0618,2.0621,2.0617,2.0621,2.0626,2.0629,2.0635,2.0641,2.0645,2.0646,2.0641,2.064,2.0642,2.0643,2.0645,2.0645,2.061,2.0638,2.0638,2.0638,2.0638,2.0638,2.0588,2.0593,2.0592,2.0594,2.0594,2.0598,2.06,2.0596,2.0598,2.06,2.0604,2.0609,2.0612,2.0621,2.062,2.0625,2.0622,2.0633,2.0622,2.0625,2.0623,2.0623,2.0624,2.0635,2.0635,2.0636,2.0636,0,2.0578,2.0575,2.0581,2.0579,2.0578,2.0584,2.0582,2.0587,2.0585,2.059,2.0591,2.0588,2.0593,2.0589,2.0594,2.0592,2.0604,2.0602,2.0604,2.0604,2.0614,2.0613,2.0645,2.065,2.0619,2.0619,2.0619,0,2.0561,2.0566,2.0561,2.0564,2.0571,2.0565,2.0573,2.0571,2.0571,2.0575,2.0568,2.0572,2.0566,2.0571,2.0567,2.0576,2.0577,2.0576,2.0575,2.0576,2.0576,2.0577,2.0575,2.0571,2.0571,2.0571,2.0571,0,2.0545,2.0547,2.0553,2.0553,2.055,2.0553,2.0552,2.0551,2.0553,2.0554,2.0555,2.0557,2.0558,2.0561,2.0557,2.055,2.0567,2.0556,2.0566,2.0566,2.0569,2.0568,2.0599,2.0571,2.0571,2.0571,2.0571,0,2.0529,2.053,2.0538,2.0536,2.0536,2.054,2.0541,2.0543,2.0542,2.054,2.054,2.0534,2.054,2.053,2.0539,2.0532,2.0534,2.0533,2.0534,2.0533,2.0522,2.054,2.0569,2.0572,2.0535,2.0535,2.0534,0,2.0514,2.052,2.0513,2.0521,2.0523,2.0514,2.0519,2.0517,2.0514,2.0516,2.0513,2.0515,2.0506,2.0506,2.0511,2.0508,2.0518,2.0506,2.0511,2.0511,2.0512,2.0539,2.0544,2.0563,2.053,2.0531,2.0531,0,2.05,2.0494,2.0495,2.0495,2.049,2.0491,2.0495,2.0495,2.0497,2.0495,2.0499,2.0501,2.0495,2.0494,2.0488,2.0494,2.0511,2.0486,2.0486,2.0491,2.0527,2.0533,2.0536,2.0507,2.0507,2.0507,2.0528,0,2.0479,2.048,2.0484,2.048,2.048,2.0483,2.0476,2.0477,2.0471,2.0467,2.0472,2.0467,2.0467,2.0468,2.0462,2.0475,2.0472,2.0465,2.0453,2.0471,2.0478,2.048,2.0444,2.0444,2.0444,2.0443,0,0,2.0465,2.0465,2.0456,2.0458,2.0457,2.0446,2.045,2.0448,2.0443,2.0443,2.0437,2.0439,2.0435,2.0441,2.0446,2.0446,2.0448,2.044,2.0463,2.0465,2.0467,2.0474,2.0477,2.0443,2.0443,2.0443,2.0442,0,2.0455,2.045,2.0453,2.045,2.0445,2.0439,2.0441,2.0433,2.043,2.0433,2.0423,2.0425,2.0425,2.0423,2.0422,2.044,2.0432,2.044,2.0453,2.046,2.0462,2.0464,2.0472,2.0475,2.0442,2.0442,2.0442,0,2.044,2.0434,2.0434,2.0429,2.0425,2.0427,2.0414,2.0414,2.0416,2.0401,2.0404,2.0401,2.0396,2.0402,2.0405,2.0399,2.0419,2.041,2.0412,2.0412,2.0417,2.042,2.0423,2.0386,2.0386,2.0386,0,0,2.0432,2.0432,2.0422,2.0426,2.0425,2.0415,2.0414,2.0408,2.0403,2.0401,2.0395,2.0392,2.0392,2.0392,2.0391,2.0398,2.0397,2.0404,2.0406,2.0408,2.0409,2.0416,2.0419,2.0386,2.0386,2.0386,0,0,2.0428,2.0417,2.0411,2.0414,2.0411,2.0401,2.0404,2.0397,2.0395,2.0393,2.0382,2.038,2.0386,2.0381,2.0375,2.0387,2.0376,2.0377,2.0389,2.0392,2.0394,2.0395,2.0359,0,0,0,0,0,2.0413,2.0419,2.0414,2.0413,2.0405,2.0404,2.0403,2.0393,2.0387,2.039,2.0384,2.0374,2.0376,2.037,2.0369,2.0376,2.0378,2.0379,2.0381,2.0397,2.0401,2.0403,0,0,0,0,0,0,2.0412,2.0411,2.0413,2.0404,2.0402,2.0404,2.039,2.0388,2.0386,2.0384,2.0376,2.0374,2.0366,2.0369,2.0369,2.0376,2.0359,2.0378,2.038,2.0381,2.0398,2.0401,2.0404,0,0,0,0,0,2.0412,2.0411,2.0401,2.0404,2.0402,2.0391,2.039,2.0387,2.0386,2.0376,2.0373,2.0379,2.0366,2.0365,2.0369,2.0376,2.0359,2.0359,2.0379,2.038,2.0381,2.04,0,0,0,0,0,0,2.0411,2.0409,2.04,2.04,2.04,2.0391,2.0389,2.0387,2.0377,2.0375,2.0378,2.0377,2.0367,2.0366,2.0365,2.0377,2.0359,2.0359,2.0359,2.038,2.0381,2.0381,0,0,0,0,0,0,2.0409,2.0408,2.04,2.0396,2.0394,2.0391,2.0389,2.039,2.0377,2.038,2.0379,2.0378,2.0368,2.0366,2.0366,2.0368,2.036,2.0359,2.0359,2.0359,2.038,2.0381,0,0,0,0,0,0,2.0409,2.0408,2.0396,2.0395,2.0394,2.0384,2.0391,2.0384,2.0374,2.0381,2.0372,2.0372,2.0368,2.0367,2.0366,2.0368,2.0368,2.036,2.0359,2.0359,2.0359,0,0,0,0,0,0,0,2.0408,2.0416,2.0405,2.0394,2.0393,2.0392,2.0392,2.0392,2.0373,2.0373,2.0373,2.0372,2.036,2.036,2.036,2.0369,0,0,2.036,2.0359,0,0,0,0,0,0,0,0,2.0417,2.0416,2.0405,2.0405,2.0405,2.0392,2.0392,2.0392,2.0373,2.0373,2.0373,2.0372,2.036,2.036,2.036,0,0,0,0,0,0,0,0,0,0,0,0,0,0,0,2.0405,2.0405,0,2.0392,2.0392,2.0392,2.0373,2.0373,2.0373,2.0372,2.036,2.036,2.036,0,0,0,0,0,0,0,0,0,0,0,0,0,0,0,0,0,0,0,0,0,0,0,0,0,0,0,0,0,0,0,0,0,0,0,0,0,0,0,0,0,0,0,0,0,0,0,0,0,0,0,0,0,0,0,0,0,0,0,0,0,0,0,0,0,0,0,0,0]}],[{"header":{"parameterUnit":"kt","parameterCategory":2,"dx":1,"dy":1,"la1":30.253999710083008,"la2":30.299108505249023,"lo1":-89.0895004272461,"lo2":-89.04439544677734,"nx":28,"ny":28,"refTime":"2022-10-25T21:00:00:Z","depth":0,"parameterNumber":2,"parameterNumberName":"V-component_of_WINDS"},"data":[-7.9615,-7.973,-7.9771,-7.9919,-7.998,-8.0088,-8.0139,-8.0208,-8.0273,-8.0403,-8.0485,-8.0533,-8.0609,-8.0713,-8.0801,-8.082,-8.0855,-8.0869,-8.0889,-8.0794,-8.0784,-8.0774,-8.0752,-8.0875,-8.0876,-8.0983,-8.0984,-8.0985,-7.9549,-7.9612,-7.9701,-7.9815,-7.9893,-7.9905,-7.9994,-8.0057,-8.0152,-8.023,-8.0312,-8.0428,-8.0522,-8.0595,-8.0692,-8.0744,-8.0754,-8.0767,-8.0766,-8.0778,-8.0677,-8.0654,-8.0758,-8.0758,-8.0758,-8.0758,-8.0758,-8.0758,-7.9441,-7.9507,-7.96,-7.9697,-7.9764,-7.9839,-7.9908,-7.9967,-8.0052,-8.0161,-8.0187,-8.0292,-8.0376,-8.0508,-8.056,-8.0642,-8.0633,-8.0658,-8.0666,-8.0672,-8.0677,-8.0525,-8.0659,-8.0659,-8.0658,-8.0658,-8.0658,0,-7.9374,-7.9404,-7.9491,-7.9591,-7.9663,-7.9743,-7.9822,-7.9865,-7.9934,-8.0,-8.01,-8.0163,-8.0286,-8.0382,-8.0478,-8.0527,-8.0543,-8.0546,-8.0565,-8.0558,-8.054,-8.0555,-8.0393,-8.0542,-8.0541,-8.0541,-8.054,-8.054,-7.9271,-7.9341,-7.9455,-7.9511,-7.9564,-7.9651,-7.9712,-7.9767,-7.9828,-7.993,-7.9983,-8.008,-8.0161,-8.0308,-8.0371,-8.0461,-8.0469,-8.0523,-8.0483,-8.0473,-8.0475,-8.0472,-8.0481,-8.0531,-8.0532,-8.0533,-8.0534,0,-7.921,-7.9273,-7.9394,-7.9497,-7.9525,-7.9595,-7.9683,-7.9748,-7.9796,-7.9892,-7.9918,-7.9992,-8.0086,-8.014,-8.0255,-8.028,-8.0396,-8.04,-8.037,-8.0375,-8.0432,-8.0427,-8.0599,-8.0626,-8.0494,-8.0495,-8.0496,0,-7.9148,-7.9236,-7.9326,-7.9392,-7.9492,-7.9546,-7.9643,-7.9694,-7.9767,-7.9843,-7.987,-7.994,-7.9998,-8.0075,-8.0112,-8.0215,-8.0235,-8.0262,-8.0271,-8.0262,-8.0259,-8.0294,-8.029,-8.0283,-8.0283,-8.0282,-8.0281,0,-7.9049,-7.9197,-7.9305,-7.9348,-7.9465,-7.9514,-7.9564,-7.9644,-7.97,-7.9781,-7.9819,-7.9906,-7.9955,-8.0023,-8.007,-8.0041,-8.0196,-8.0165,-8.0223,-8.0222,-8.0256,-8.0253,-8.039,-8.028,-8.028,-8.0279,-8.0279,0,-7.9008,-7.9093,-7.9237,-7.9337,-7.9373,-7.9441,-7.9536,-7.9606,-7.9688,-7.9717,-7.978,-7.9804,-7.9896,-7.9863,-7.9991,-7.9941,-7.9987,-8.002,-8.0025,-8.0038,-8.0001,-8.0075,-8.0197,-8.0214,-8.0049,-8.0047,-8.0045,0,-7.888,-7.9041,-7.909,-7.9224,-7.9307,-7.9335,-7.9412,-7.9483,-7.9528,-7.9603,-7.9651,-7.9733,-7.972,-7.9753,-7.9809,-7.9861,-7.9926,-7.9853,-7.996,-7.9963,-7.9943,-8.0055,-8.0062,-8.0164,-8.0021,-8.0024,-8.0025,0,-7.8788,-7.893,-7.895,-7.9003,-7.9107,-7.9173,-7.926,-7.9356,-7.9404,-7.9477,-7.9553,-7.9667,-7.9663,-7.9716,-7.9743,-7.9798,-7.9883,-7.9786,-7.9788,-7.9805,-8.0011,-8.0019,-8.0036,-7.9889,-7.9892,-7.9895,-8.0006,0,-7.8721,-7.8808,-7.8864,-7.8975,-7.9035,-7.912,-7.918,-7.9235,-7.9258,-7.9303,-7.9411,-7.9479,-7.9571,-7.9602,-7.9621,-7.973,-7.9721,-7.9713,-7.9686,-7.9758,-7.9796,-7.9812,-7.9625,-7.9624,-7.9624,-7.9624,0,0,-7.8584,-7.871,-7.8757,-7.8844,-7.8898,-7.8925,-7.9011,-7.9065,-7.9173,-7.921,-7.9195,-7.9366,-7.942,-7.9544,-7.9571,-7.9606,-7.9632,-7.9603,-7.9722,-7.9733,-7.9743,-7.9783,-7.9798,-7.9623,-7.9623,-7.9622,-7.9622,0,-7.8573,-7.8633,-7.8717,-7.8777,-7.8867,-7.8911,-7.8931,-7.9023,-7.9056,-7.916,-7.9178,-7.9248,-7.938,-7.9438,-7.9484,-7.959,-7.9598,-7.9612,-7.9652,-7.9716,-7.9727,-7.9737,-7.9779,-7.9793,-7.9621,-7.9621,-7.9621,0,-7.8496,-7.8567,-7.8613,-7.8735,-7.8793,-7.8874,-7.8862,-7.8945,-7.9006,-7.9025,-7.9128,-7.9173,-7.9252,-7.936,-7.9409,-7.9397,-7.9566,-7.9519,-7.9523,-7.953,-7.9595,-7.9608,-7.962,-7.9462,-7.9461,-7.9461,0,0,-7.8478,-7.8558,-7.8648,-7.8737,-7.8772,-7.8838,-7.8885,-7.8912,-7.8985,-7.9014,-7.9071,-7.914,-7.9218,-7.9267,-7.9343,-7.9451,-7.9473,-7.9498,-7.9505,-7.9511,-7.9521,-7.9587,-7.96,-7.9458,-7.9458,-7.9458,0,0,-7.8468,-7.8578,-7.8589,-7.87,-7.8771,-7.8863,-7.8914,-7.8928,-7.9002,-7.8999,-7.9045,-7.9065,-7.9166,-7.9207,-7.9163,-7.9334,-7.9306,-7.9317,-7.9304,-7.9314,-7.9321,-7.931,-7.9157,0,0,0,0,0,-7.8488,-7.8565,-7.8574,-7.8601,-7.8753,-7.8858,-7.8878,-7.892,-7.8902,-7.8942,-7.8992,-7.8997,-7.9194,-7.9156,-7.918,-7.923,-7.9421,-7.9427,-7.9434,-7.9442,-7.9452,-7.9461,0,0,0,0,0,0,-7.8499,-7.8532,-7.8572,-7.8667,-7.8701,-7.8856,-7.8834,-7.8847,-7.8898,-7.8898,-7.8988,-7.9,-7.9035,-7.9146,-7.9167,-7.9213,-7.915,-7.9423,-7.9429,-7.9434,-7.9446,-7.9454,-7.9461,0,0,0,0,0,-7.8508,-7.8535,-7.8767,-7.8666,-7.8696,-7.8771,-7.8831,-7.8842,-7.8882,-7.8959,-7.8972,-7.891,-7.9036,-7.9057,-7.9159,-7.9203,-7.9135,-7.9143,-7.9427,-7.9431,-7.9435,-7.945,0,0,0,0,0,0,-7.8515,-7.8545,-7.8774,-7.8785,-7.864,-7.8763,-7.8784,-7.8838,-7.894,-7.8954,-7.8883,-7.8882,-7.9037,-7.9053,-7.9069,-7.9197,-7.9123,-7.9131,-7.9136,-7.943,-7.9434,-7.9437,0,0,0,0,0,0,-7.8531,-7.8554,-7.8779,-7.8744,-7.8751,-7.8756,-7.8774,-7.8865,-7.8941,-7.8858,-7.8861,-7.8881,-7.9011,-7.9051,-7.9063,-7.9203,-7.9114,-7.9121,-7.9127,-7.913,-7.9433,-7.9436,0,0,0,0,0,0,-7.8541,-7.8561,-7.8742,-7.8747,-7.8753,-7.8875,-7.8836,-7.8988,-7.8914,-7.8853,-7.8909,-7.8906,-7.9009,-7.9022,-7.9059,-7.9193,-7.92,-7.9114,-7.9119,-7.9123,-7.9125,0,0,0,0,0,0,0,-7.855,-7.8407,-7.8711,-7.8749,-7.8755,-7.8883,-7.8886,-7.8889,-7.8914,-7.8912,-7.8909,-7.8907,-7.9069,-7.9078,-7.9087,-7.9186,0,0,-7.9113,-7.9117,0,0,0,0,0,0,0,0,-7.84,-7.8406,-7.8712,-7.8714,-7.8716,-7.8883,-7.8886,-7.8888,-7.8914,-7.8912,-7.891,-7.8908,-7.9072,-7.9079,-7.9086,0,0,0,0,0,0,0,0,0,0,0,0,0,0,0,-7.8712,-7.8714,0,-7.8884,-7.8886,-7.8887,-7.8913,-7.8912,-7.891,-7.8909,-7.9074,-7.9079,-7.9085,0,0,0,0,0,0,0,0,0,0,0,0,0,0,0,0,0,0,0,0,0,0,0,0,0,0,0,0,0,0,0,0,0,0,0,0,0,0,0,0,0,0,0,0,0,0,0,0,0,0,0,0,0,0,0,0,0,0,0,0,0,0,0,0,0,0,0,0,0]}]]]